IRIDIUM 126

Last updated on Sun Jun 21 2026 00:03:14 GMT+0000 (Coordinated Universal Time)

1 42809U 17039G 26171.21845740 .00000186 00000+0 59351-4 0 9992 2 42809 86.3973 352.3763 0002201 87.4579 272.6868 14.34217921470380
UTC large
Height (km)
Speed (km/s)
/
Latitude / Longitude
Inclination (degrees)
Orbital Period (minutes)
Azimuth
Elevation
Range (km)
Doppler Factor

Next 0 passes for location: London (51.5072 / 0.1276)

No passes found over London.
IRIDIUM 126